This demonstration page uses our WeatherBlox Daily Observations layout. Learn more.

Left ArrowRight Arrow

40.97296, -117.73568

Hourly Observations for August 13, 2022

Temp ( °F °C ) Dew Point ( °F °C ) Humidity (%) Winds ( mph kmh ) Pressure ( in mb ) Visibility ( mi km ) Precip ( " mm )
12:56 am 00:56 Clear 65 18.3 33 0.6 30 30 NNE 3 6 29.94 1014 10 16 0.00 0.00
1:56 am 01:56 Clear 67 19.4 28 -2.2 23 23 NNE 7 11 29.94 1014 10 16 0.00 0.00
2:56 am 02:56 Clear 54 12.2 35 1.7 49 49 SSE 6 9 29.98 1015 10 16 0.00 0.00
3:56 am 03:56 Clear 55 12.8 37 2.8 51 51 Calm 29.97 1015 10 16 0.00 0.00
4:56 am 04:56 Clear 52 11.1 37 2.8 57 57 SE 3 6 29.98 1015 10 16 0.00 0.00
5:56 am 05:56 Clear 54 12.2 35 1.7 49 49 Calm 29.99 1016 10 16 0.00 0.00
6:56 am 06:56 Sunny 60 15.6 37 2.8 42 42 E 5 7 30.01 1016 10 16 0.00 0.00
7:56 am 07:56 Sunny 71 21.7 32 0 24 24 Calm 30.01 1016 10 16 0.00 0.00
8:56 am 08:56 Sunny 77 25 31 -0.6 18 18 WNW 7 11 30.02 1017 10 16 0.00 0.00
9:56 am 09:56 Sunny 83 28.3 27 -2.8 13 13 VRB 3 6 30.02 1017 10 16 0.00 0.00
10:56 am 10:56 Sunny 85 29.4 26 -3.3 12 12 N 7 11 30.01 1016 10 16 0.00 0.00
11:56 am 11:56 Sunny 89 31.7 23 -5 9 9 VRB 6 9 30.01 1016 10 16 0.00 0.00
12:56 pm 12:56 Sunny 92 33.3 21 -6.1 8 8 W 14 22 29.98 1015 10 16 0.00 0.00
1:56 pm 13:56 Sunny 93 33.9 23 -5 8 8 WNW 13 20 29.95 1014 10 16 0.00 0.00
2:56 pm 14:56 Sunny 96 35.6 24 -4.4 8 8 W 10 17 29.95 1014 10 16 0.00 0.00
3:56 pm 15:56 Sunny 95 35 23 -5 7 7 WNW 8 13 29.93 1014 10 16 0.00 0.00
4:56 pm 16:56 Sunny 96 35.6 22 -5.6 7 7 W 13 20 29.92 1013 10 16 0.00 0.00
5:56 pm 17:56 Sunny 94 34.4 20 -6.7 7 7 SW 9 15 29.90 1013 10 16 0.00 0.00
6:56 pm 18:56 Sunny 92 33.3 21 -6.1 8 8 W 9 15 29.90 1012 10 16 0.00 0.00
7:56 pm 19:56 Clear 80 26.7 23 -5 12 12 WNW 6 9 29.91 1013 10 16 0.00 0.00
8:56 pm 20:56 Clear 76 24.4 21 -6.1 13 13 Calm 29.93 1014 10 16 0.00 0.00
9:56 pm 21:56 Clear 64 17.8 30 -1.1 28 28 S 3 6 29.95 1014 10 16 0.00 0.00
10:56 pm 22:56 Clear 64 17.8 27 -2.8 24 24 Calm 29.94 1014 10 16 0.00 0.00
11:56 pm 23:56 Clear 63 17.2 28 -2.2 26 26 Calm 29.94 1014 10 16 0.00 0.00

Powered by AerisWeather